Waarnemingen

Advertentie
Mijn weer
Koksijde, België (6400): temperatuur & dauwpunt: 15.06.2019 00:00:00 - 21.06.2019 00:00:00 (CEST)Koksijde, België (6400): windsnelheid & windstoten: 15.06.2019 00:00:00 - 21.06.2019 00:00:00 (CEST)Koksijde, België (6400): windrichting: 15.06.2019 00:00:00 - 21.06.2019 00:00:00 (CEST)Koksijde, België (6400): luchtdruk: 15.06.2019 00:00:00 - 21.06.2019 00:00:00 (CEST)Koksijde, België (6400): zicht: 15.06.2019 00:00:00 - 21.06.2019 00:00:00 (CEST)
Datum & Tijd tt [°C] td [°C] ff [km/u] ff [kn] fx [km/u] fx [kn] dd ppp [hPa] vv [km]
21.06.2019 00:00:00 11,6 9,5 14 8 18 10 ZW 1016,7 13
20.06.2019 23:00:00 12,5 9,0 14 8 - - ZW 1016,6 18
20.06.2019 22:00:00 13,7 8,3 14 8 29 16 WZW 1016,2 20
20.06.2019 21:00:00 15,8 8,1 18 10 32 18 WZW 1015,7 20
20.06.2019 20:00:00 16,9 7,6 22 12 - - WZW 1015,2 19
20.06.2019 19:00:00 17,8 8,2 22 12 36 19 WZW 1015,0 20
20.06.2019 18:00:00 18,5 8,5 25 14 36 19 WZW 1014,7 15
20.06.2019 17:00:00 19,2 9,6 22 12 - - WZW 1014,5 20
20.06.2019 16:00:00 18,7 7,8 18 10 36 19 W 1014,2 20
20.06.2019 15:00:00 17,9 9,6 25 14 40 21 W 1014,1 20
20.06.2019 14:00:00 17,7 8,5 25 14 - - W 1013,7 20
20.06.2019 13:00:00 16,2 13,4 22 12 32 18 WNW 1013,2 20
20.06.2019 12:00:00 - - - - - - - - -
20.06.2019 11:00:00 16,9 13,5 18 10 - - W 1012,2 20
20.06.2019 10:00:00 16,3 14,1 13 7 22 12 W 1012,0 8
20.06.2019 09:00:00 - - - - - - - - -
20.06.2019 08:00:00 15,1 13,1 14 8 - - ZW 1011,2 6
20.06.2019 07:00:00 14,6 12,8 14 8 32 18 ZW 1010,7 5
20.06.2019 06:00:00 14,5 12,4 18 10 32 18 ZW 1010,5 5
20.06.2019 05:00:00 14,5 12,8 18 10 - - WZW 1010,5 5
20.06.2019 04:00:00 14,1 12,6 13 7 18 10 ZZW 1010,2 3,6
20.06.2019 03:00:00 15,0 13,0 13 7 - - ZW - 3,7
20.06.2019 02:00:00 14,8 13,2 11 6 - - ZW 1010,2 4,8
20.06.2019 01:00:00 15,3 13,4 11 6 18 10 ZW 1010,0 3,9
20.06.2019 00:00:00 16,2 14,5 11 6 18 10 WZW 1009,7 3,5
19.06.2019 23:00:00 16,6 14,9 11 6 - - ZW 1009,5 3,6
19.06.2019 22:00:00 16,5 14,3 11 6 25 14 WNW 1009,2 6
19.06.2019 21:00:00 - - - - - - - - -
19.06.2019 20:00:00 16,8 13,8 18 10 - - WNW 1008,1 13
19.06.2019 19:00:00 18,1 14,2 18 10 32 18 NW 1007,5 12
19.06.2019 18:00:00 19,0 14,5 14 8 29 16 WNW 1007,7 18
19.06.2019 17:00:00 19,1 15,2 18 10 - - NW 1007,6 12
19.06.2019 16:00:00 20,0 15,5 5 3 14 8 N 1007,5 10
19.06.2019 15:00:00 19,0 16,0 9 5 - - NNW - 10
19.06.2019 14:00:00 20,9 16,2 4 2 - - N 1007,6 15
19.06.2019 13:00:00 19,2 16,0 4 2 11 6 N 1007,7 14
19.06.2019 12:00:00 18,6 15,6 4 2 7 4 N 1007,7 10
19.06.2019 11:00:00 17,2 15,2 4 2 - - N 1008,0 8
19.06.2019 10:00:00 17,5 14,4 5 3 43 23 NNW 1008,1 5
19.06.2019 09:00:00 17,4 15,4 11 6 22 12 ZZO 1006,5 15
19.06.2019 08:00:00 16,0 14,8 9 5 - - OZO 1006,1 10
19.06.2019 07:00:00 15,0 14,2 11 6 29 16 O 1006,3 6
19.06.2019 06:00:00 17,1 13,4 11 6 29 16 OZO 1007,1 20
19.06.2019 05:00:00 15,8 13,5 11 6 - - N 1008,0 14
19.06.2019 04:00:00 15,4 13,3 26 14 43 23 NNW 1009,1 5
19.06.2019 03:00:00 18,5 15,0 14 8 40 21 WNW 1009,7 5
19.06.2019 02:00:00 14,5 13,2 7 4 - - O 1008,3 2,3
19.06.2019 01:00:00 14,5 13,1 7 4 14 8 O 1009,1 3,5
19.06.2019 00:00:00 14,6 13,1 7 4 14 8 O 1009,7 5
18.06.2019 23:00:00 15,8 13,4 11 6 - - O 1010,5 8
18.06.2019 22:00:00 16,9 13,4 7 4 22 12 ONO 1010,7 12
18.06.2019 21:00:00 18,0 14,0 14 8 29 16 NNO 1010,8 13
18.06.2019 20:00:00 18,7 14,0 14 8 - - NNO 1011,7 13
18.06.2019 19:00:00 19,5 14,2 18 10 29 16 NNO 1011,8 13
18.06.2019 18:00:00 19,9 14,7 22 12 29 16 NNO 1012,0 18
18.06.2019 17:00:00 20,0 14,1 18 10 - - NNO 1012,6 16
18.06.2019 16:00:00 21,0 14,2 18 10 25 14 N 1013,2 14
18.06.2019 15:00:00 21,7 14,1 14 8 22 12 NNO 1013,7 16
18.06.2019 14:00:00 22,7 16,0 11 6 - - NNO 1014,1 16
18.06.2019 13:00:00 21,7 15,1 4 2 14 8 N 1014,8 20
18.06.2019 12:00:00 20,6 13,8 4 2 11 6 N 1015,2 20
18.06.2019 11:00:00 20,0 13,5 7 4 - - N 1015,7 20
18.06.2019 10:00:00 18,0 12,1 4 2 7 4 N 1015,8 20
18.06.2019 09:00:00 17,2 11,5 4 2 7 4 N 1016,1 15
18.06.2019 08:00:00 15,5 13,2 4 2 - - N 1016,2 8
18.06.2019 07:00:00 12,8 11,6 2 1 4 2 - 1016,2 8
18.06.2019 06:00:00 10,8 9,6 4 2 4 2 N 1016,3 5
18.06.2019 05:00:00 11,6 10,4 4 2 - - N 1016,5 5
18.06.2019 04:00:00 11,9 10,4 2 1 4 2 - 1016,8 6
18.06.2019 03:00:00 13,1 11,0 4 2 4 2 N 1017,2 7
18.06.2019 02:00:00 13,3 10,7 4 2 - - N 1017,6 11
18.06.2019 01:00:00 15,0 10,5 7 4 7 4 N 1018,0 18
18.06.2019 00:00:00 14,6 9,9 4 2 7 4 N 1017,7 20
17.06.2019 23:00:00 15,0 10,3 4 2 - - N 1017,7 19
17.06.2019 22:00:00 15,1 10,8 4 2 11 6 N 1017,6 12
17.06.2019 21:00:00 16,3 10,8 7 4 14 8 NNW 1017,7 18
17.06.2019 20:00:00 17,7 11,7 7 4 - - NW 1017,7 20
17.06.2019 19:00:00 18,8 11,9 11 6 18 10 NW 1018,1 20
17.06.2019 18:00:00 19,1 12,6 11 6 22 12 NW 1018,3 17
17.06.2019 17:00:00 20,1 13,3 7 4 - - NW 1018,7 18
17.06.2019 16:00:00 19,8 13,2 14 8 22 12 NW 1019,0 20
17.06.2019 15:00:00 19,9 14,2 14 8 22 12 NW 1019,2 20
17.06.2019 14:00:00 19,6 13,7 11 6 - - NW 1019,3 20
17.06.2019 13:00:00 19,3 14,7 18 10 29 16 NW 1019,5 20
17.06.2019 12:00:00 20,7 12,4 11 6 25 14 ZZW 1019,7 20
17.06.2019 11:00:00 21,2 13,0 14 8 - - ZZW 1019,8 20
17.06.2019 10:00:00 20,1 12,8 14 8 18 10 Z 1020,1 20
17.06.2019 09:00:00 18,8 14,1 11 6 18 10 Z 1020,2 10
17.06.2019 08:00:00 16,2 13,5 7 4 - - ZZO 1020,1 10
17.06.2019 07:00:00 13,3 11,4 4 2 4 2 N 1020,2 10
17.06.2019 06:00:00 10,3 9,6 4 2 7 4 N 1020,0 7
17.06.2019 05:00:00 10,0 9,0 4 2 - - N 1020,0 8
17.06.2019 04:00:00 11,0 9,8 4 2 4 2 N 1020,3 8
17.06.2019 03:00:00 11,1 9,6 4 2 7 4 N 1020,7 11
17.06.2019 02:00:00 11,8 9,7 4 2 - - N 1020,8 14
17.06.2019 01:00:00 12,8 10,4 4 2 4 2 N 1021,0 20
17.06.2019 00:00:00 13,1 10,4 4 2 7 4 N 1021,1 20
16.06.2019 23:00:00 14,4 10,0 4 2 - - N 1021,0 20
16.06.2019 22:00:00 16,2 11,0 7 4 22 12 WZW 1020,7 19
16.06.2019 21:00:00 18,3 11,8 11 6 18 10 WZW 1020,7 20
16.06.2019 20:00:00 19,1 12,3 11 6 - - W 1020,7 20
16.06.2019 19:00:00 18,9 12,6 18 10 32 18 WNW 1020,5 14
16.06.2019 18:00:00 19,6 11,0 14 8 43 23 WNW 1020,2 20
16.06.2019 17:00:00 20,9 11,1 25 14 - - WZW 1020,2 17
16.06.2019 16:00:00 21,1 11,8 22 12 36 19 ZW 1020,1 20
16.06.2019 15:00:00 20,1 12,1 22 12 32 18 ZW 1020,1 19
16.06.2019 14:00:00 19,9 11,4 22 12 - - ZW 1019,7 20
16.06.2019 13:00:00 19,2 12,3 22 12 36 19 ZW 1020,0 17
16.06.2019 12:00:00 17,0 11,3 22 12 32 18 ZW 1020,0 19
16.06.2019 11:00:00 17,7 11,1 22 12 - - ZZW 1019,5 20
16.06.2019 10:00:00 16,7 11,8 18 10 29 16 ZW 1019,3 20
16.06.2019 09:00:00 15,6 12,4 11 6 22 12 ZW 1019,2 15
16.06.2019 08:00:00 14,8 12,5 14 8 - - ZW 1018,6 19
16.06.2019 07:00:00 13,5 12,0 9 5 14 8 ZZW 1018,0 10
16.06.2019 06:00:00 12,9 11,6 7 4 11 6 ZZW 1017,7 12
16.06.2019 05:00:00 12,8 11,2 7 4 - - ZZW 1017,2 13
16.06.2019 04:00:00 13,1 11,0 7 4 18 10 ZZW 1017,1 15
16.06.2019 03:00:00 13,6 11,0 11 6 14 8 Z 1017,2 16
16.06.2019 02:00:00 13,6 10,9 11 6 - - ZZW 1017,0 17
16.06.2019 01:00:00 14,3 10,9 11 6 14 8 ZW 1016,8 19
16.06.2019 00:00:00 15,6 10,8 7 4 11 6 ZZO 1016,5 19
15.06.2019 23:00:00 15,0 10,8 7 4 - - ZZW 1016,2 20
15.06.2019 22:00:00 16,0 10,8 7 4 18 10 ZW 1016,1 20
15.06.2019 21:00:00 17,3 11,4 7 4 11 6 OZO 1015,8 20
15.06.2019 20:00:00 18,3 10,6 7 4 - - NNW 1015,7 17
15.06.2019 19:00:00 17,5 10,7 7 4 18 10 NW 1015,6 19
15.06.2019 18:00:00 17,7 11,6 14 8 22 12 NW 1015,7 19
15.06.2019 17:00:00 19,2 11,0 7 4 - - NNW 1015,6 18
15.06.2019 16:00:00 18,3 10,4 11 6 18 10 NW 1015,7 20
15.06.2019 15:00:00 18,2 10,3 11 6 18 10 NW 1015,7 14
15.06.2019 14:00:00 17,5 9,7 7 4 - - NNW 1015,6 19
15.06.2019 13:00:00 17,6 10,2 7 4 18 10 NNW 1015,2 18
15.06.2019 12:00:00 17,3 10,9 11 6 18 10 NW 1014,8 20
15.06.2019 11:00:00 17,2 10,4 11 6 - - NW 1014,2 19
15.06.2019 10:00:00 16,3 11,5 7 4 11 6 N 1013,8 20
15.06.2019 09:00:00 15,5 11,4 7 4 11 6 WNW 1013,2 20
15.06.2019 08:00:00 14,6 11,8 4 2 - - N 1013,1 14
15.06.2019 07:00:00 13,8 11,3 5 3 7 4 WNW 1012,7 10
15.06.2019 06:00:00 13,8 11,3 4 2 7 4 N 1012,7 10
15.06.2019 05:00:00 14,0 10,9 4 2 - - N 1012,5 13
15.06.2019 04:00:00 13,6 11,5 4 2 4 2 N 1012,2 17
15.06.2019 03:00:00 13,5 10,7 4 2 4 2 N 1012,6 18
15.06.2019 02:00:00 13,7 10,3 4 2 - - N 1012,5 20
15.06.2019 01:00:00 13,5 10,3 4 2 7 4 N 1013,1 20
15.06.2019 00:00:00 14,1 10,2 4 2 7 4 N 1013,2 19

tt = temperatuur
td = dauwpunt
ff = windsnelheid
fx = windstoten
dd = windrichting
ppp = luchtdruk
vv = zicht

Weerstations in de omgeving